Regional Weather Roundup
Issued by NWS

Home | Current Version | Previous Version | Graphics & Text | Print | Product List | Glossary Off
Versions: 1 2 3 4 5 6 7 8 9 10 11 12 13 14 15 16 17 18 19 20 21 22 23 24 25 26 27 28 29 30 31 32 33 34 35 36 37 38 39 40 41 42 43 44 45 46 47 48 49 50

000
ASUS43 KMKX 210900
RWRWI

WISCONSIN REGIONAL WEATHER ROUNDUP
NATIONAL WEATHER SERVICE MILWAUKEE/SULLIVAN WI
400 AM CDT TUE OCT 21 2014

NOTE: "FAIR" INDICATES FEW OR NO CLOUDS BELOW 12,000 FEET WITH NO
SIGNIFICANT WEATHER AND/OR OBSTRUCTIONS TO VISIBILITY.

WIZ001-002-006>008-014>016-023>028-211000-
NORTHWEST WISCONSIN

CITY           SKY/WX    TMP DP  RH WIND       PRES   REMARKS
SUPERIOR ARPT  CLOUDY    44  39  82 E7        30.18R
ASHLAND        CLOUDY    43  36  76 NE8       30.19R
HAYWARD        CLOUDY    44  36  73 NE9       30.16R
SIREN          MOCLDY    33  32  94 CALM      30.15S
CUMBERLAND     CLOUDY    41  36  81 NE3       30.14R
RICE LAKE      CLOUDY    46  37  71 NE6       30.15S
CHETEK         CLOUDY    46  38  74 NE5       30.14R
LADYSMITH      PTCLDY    41  35  80 NE5       30.16R
EAU CLAIRE     CLEAR     36  35  96 CALM      30.13R FOG
MENOMONIE      CLEAR     38  37  95 CALM      30.14R
NEW RICHMOND   FOG       33  33 100 CALM      30.14S VSB 1
OSCEOLA        PTCLDY    32  32 100 CALM      30.17S
$$

WIZ003>005-009-010-017-018-211000-
NORTH CENTRAL WISCONSIN

CITY           SKY/WX    TMP DP  RH WIND       PRES   REMARKS
MANITOWISH WTR DRIZZLE   38  38  99 N5        30.14R WCI  34
ARBOR VITAE    CLOUDY    39  37  91 N5        30.13S
WOODRUFF       CLOUDY    39  37  91 N5        30.13S
RHINELANDER    CLOUDY    39  34  82 N5        30.13R
EAGLE RIVER    CLOUDY    38  36  91 N6        30.12R WCI  34
LAND O LAKES   DRIZZLE   38  37  94 N5        30.14R WCI  35
PHILLIPS       CLOUDY    40  34  80 NE8       30.14R WCI  35
TOMAHAWK       CLOUDY    40  33  78 N3        30.14R
MEDFORD        CLEAR     37  34  90 N6        30.13R WCI  32
MERRILL        CLOUDY    41  35  79 N12       30.12S
$$

WIZ029-030-035-036-043>047-211000-
CENTRAL WISCONSIN

CITY           SKY/WX    TMP DP  RH WIND       PRES   REMARKS
WAUSAU         CLOUDY    42  35  76 N7G18     30.11R
MOSINEE        CLEAR     37  36  93 N13       30.12R WCI  29
MARSHFIELD     CLEAR     41  35  79 NE7       30.12R
STEVENS POINT  CLEAR     37  34  89 N5        30.12R WCI  34
WAUPACA        MOCLDY    44  39  85 N7        30.11R
WAUTOMA        NOT AVBL
WISC RAPIDS    CLEAR     43  36  76 NE10      30.13R
CAMP DOUGLAS   CLOUDY    39  39 100 CALM      30.11R
$$

WIZ011>013-019>022-031-037>040-048>050-211000-
NORTHEAST WISCONSIN

CITY           SKY/WX    TMP DP  RH WIND       PRES   REMARKS
ANTIGO         CLOUDY    39  34  83 N14       30.10S WCI  31
SHAWANO        CLOUDY    44  37  78 N5        30.10R
OCONTO         CLOUDY    43  39  86 N8        30.09R
STURGEON BAY   CLOUDY    45  37  76 N17G23    30.07R
GREEN BAY      CLOUDY    44  38  79 N13       30.09R
MANITOWOC      NOT AVBL
APPLETON       CLOUDY    41  36  81 N10       30.09R
CLINTONVILLE   CLOUDY    41  36  81 N7        30.10R
OSHKOSH        CLOUDY    44  38  79 N12       30.08R
$$

WIZ032>034-041-042-053>061-211000-
SOUTHWEST WISCONSIN

CITY           SKY/WX    TMP DP  RH WIND       PRES   REMARKS
LA CROSSE      CLEAR     40  37  89 CALM      30.13R
SPARTA         CLEAR     31  31 100 CALM      30.12R
VIROQUA        CLEAR     38  38 100 CALM      30.10R
BOSCOBEL       CLEAR     35  33  92 CALM      30.12R FOG
PRAIRIE DU CHI CLEAR     38  36  92 CALM      30.10S
PLATTEVILLE    CLEAR     39  37  90 CALM      30.09S
$$

WIZ056-057-062-063-064-067-068-211000-
SOUTH CENTRAL WISCONSIN

CITY           SKY/WX    TMP DP  RH WIND       PRES   REMARKS
REEDSBURG      CLOUDY    46  39  77 N5        30.09R
BARABOO/DELLS  CLOUDY    47  38  71 N6        30.08S
LONE ROCK      NOT AVBL
MINERAL POINT  CLEAR     41  37  87 CALM      30.08R
MADISON        CLOUDY    47  40  76 N6        30.08R
MIDDLETON      CLOUDY    48  40  75 N5        30.08R
WATERTOWN      CLOUDY    46  39  76 N8        30.06S
MONROE         PTCLDY    43  37  81 N6        30.07R
JANESVILLE     MOCLDY    50  39  66 N5        30.05S
$$

WIZ051-052-058>065-066-070>072-211000-
SOUTHEAST WISCONSIN

CITY           SKY/WX    TMP DP  RH WIND       PRES   REMARKS
MILWAUKEE      MOCLDY    47  39  74 N8        30.05R
WAUKESHA       CLOUDY    43  36  75 N6        30.06S
MILWAUKEE/TIMM CLOUDY    45  37  76 N8        30.06S
RACINE         MOCLDY    46  40  79 N8        30.06R
BURLINGTON     CLOUDY    46  39  77 N5        30.05R
KENOSHA        CLOUDY    47  41  80 N7        30.05R
FOND DU LAC    CLOUDY    45  37  73 N9        30.08R
SHEBOYGAN      CLOUDY    45  39  79 N7        30.06R
WEST BEND      CLOUDY    45  37  76 N7        30.06R
JUNEAU         CLOUDY    45  38  75 N8        30.08R
$$

LSZ147-162-211000-
LAKE SUPERIOR

STATION/POSITION TIME  TEMP    WIND        PRES    WAVE
                       AIR SEA DIR/SP/G            HT/PER
                 (UTC) (F)     (DEG/KT/KT) (MB)    (FT/S)
W MID LAKE BUOY  0750   41 46   30/ 12/ 14 1022.6R   3/ 5
DEVILS ISLAND    0800   43      60/ 18/ 21 1022.8R
PORT WING        0840   45      70/  5/  8 1022.0S
SAXON HARBOR     0800   46      50/ 10/ 12 1021.7R
$$

LMZ867-665-643>646-211000-
LAKE MICHIGAN

STATION/POSITION TIME  TEMP    WIND        PRES    WAVE
                       AIR SEA DIR/SP/G            HT/PER
                 (UTC) (F)     (DEG/KT/KT) (MB)    (FT/S)
CHAMBERS ISLAND  0800   45     340/ 18/ 23 1017.9R
N MID LAKE BUOY  0750   47 51  360/ 19/ 23 1016.6R   4/ 5
NORTHPORT PIER   0800   46     350/ 18     1017.6R
SISTER BAY       0827          360/ 19/ 30   N/A
KEWAUNEE LAKESHO 0800   45     350/  7/ 12 1016.7R
SHEBOYGAN LAKESH 0800   46 50  340/ 11/ 13 1017.9R
PORT WASHINGTON  0800   46     320/  5/  8 1018.3R
ATWATER BUOY     0800   49     330/ 12/ 16 1018.3R
MILWAUKEE LAKESH 0800   48     340/  8/ 11   N/A
S MID LAKE BUOY  0750   51 54  350/ 19/ 23 1016.0R   4/ 6
KENOSHA   LAKESH 0800   50     340/  9/ 12 1016.9R
$$

TC  - TEMPERATURE IN CELSIUS
VSB - VISIBILITY IN STATUTE MILES
WCI - WIND CHILL INDEX
HX  - HEAT INDEX




USA.gov is the U.S. government's official web portal to all federal, state and local government web resources and services.